[[{"header":{"parameterUnit":"m.s-1","parameterCategory":1,"la1":30.2991,"la2":30.254,"lo1":-89.0895,"lo2":-89.0444,"dy":0.0017,"dx":0.0017,"nx":28,"ny":28,"refTime":"2025-11-29T03:00:00:Z","depth":0,"parameterNumber":2,"parameterNumberName":"U-component_of_WINDS"},"data":[0,0,0,0,0,0,0,0,0,0,0,0,0,0,0,0,0,0,0,0,0,0,0,0,0,0,0,0,0,0,0,0,0,0,0,0,0,0,0,0,0,0,0,0,0,0,0,0,0,0,0,0,0,0,0,0,0,0,-2.6402,-2.6402,0,-2.6389,-2.6388,-2.6388,-2.6335,-2.6334,-2.6332,-2.6331,-2.6318,-2.6319,-2.632,0,0,0,0,0,0,0,0,0,0,0,0,0,-2.6384,-2.6384,-2.6402,-2.6402,-2.6402,-2.6389,-2.6388,-2.6388,-2.6335,-2.6334,-2.6332,-2.6331,-2.6318,-2.6319,-2.632,0,0,0,0,0,0,0,0,0,0,0,0,0,-2.6383,-2.6385,-2.6403,-2.6374,-2.6371,-2.6389,-2.6388,-2.6388,-2.6335,-2.6333,-2.6332,-2.633,-2.6318,-2.6319,-2.632,-2.6365,0,0,-2.6324,-2.6324,0,0,0,0,0,0,0,0,-2.6383,-2.6384,-2.6378,-2.6376,-2.6373,-2.6362,-2.6377,-2.638,-2.6336,-2.6349,-2.6331,-2.6329,-2.6334,-2.6334,-2.6336,-2.6364,-2.6363,-2.6324,-2.6325,-2.6325,-2.6326,0,0,0,0,0,0,0,-2.6383,-2.6384,-2.6397,-2.6378,-2.6375,-2.6362,-2.636,-2.6377,-2.6352,-2.6348,-2.6344,-2.6343,-2.6332,-2.6335,-2.6335,-2.6363,-2.6324,-2.6325,-2.6326,-2.6326,-2.6427,-2.6429,0,0,0,0,0,0,-2.6387,-2.6385,-2.6397,-2.6397,-2.6374,-2.6364,-2.6362,-2.6367,-2.6352,-2.6348,-2.6344,-2.634,-2.6333,-2.6333,-2.6334,-2.6385,-2.6325,-2.6326,-2.6327,-2.6425,-2.6428,-2.643,0,0,0,0,0,0,-2.6387,-2.6389,-2.6398,-2.639,-2.639,-2.6366,-2.6373,-2.6368,-2.637,-2.6349,-2.6345,-2.6351,-2.6332,-2.6332,-2.6357,-2.6384,-2.6327,-2.6328,-2.6423,-2.6426,-2.6429,-2.6487,0,0,0,0,0,0,-2.6387,-2.6389,-2.6406,-2.639,-2.639,-2.6421,-2.6374,-2.6369,-2.6372,-2.6366,-2.6354,-2.6351,-2.633,-2.6356,-2.6359,-2.6385,-2.6329,-2.6421,-2.6424,-2.6428,-2.6483,-2.6492,-2.65,0,0,0,0,0,-2.6386,-2.6423,-2.6407,-2.6409,-2.641,-2.6423,-2.6423,-2.6399,-2.6374,-2.6391,-2.6377,-2.6351,-2.6381,-2.6359,-2.6361,-2.6388,-2.6419,-2.6423,-2.6428,-2.6479,-2.649,-2.65,0,0,0,0,0,0,-2.6443,-2.6421,-2.6402,-2.6435,-2.6431,-2.6414,-2.6434,-2.6411,-2.6414,-2.6409,-2.6379,-2.6377,-2.6406,-2.64,-2.6376,-2.643,-2.6395,-2.64,-2.6434,-2.6444,-2.6452,-2.6453,-2.633,0,0,0,0,0,-2.6459,-2.6471,-2.6451,-2.6482,-2.648,-2.6458,-2.6462,-2.6444,-2.6439,-2.6437,-2.6426,-2.6422,-2.6431,-2.6437,-2.6444,-2.6482,-2.6478,-2.6502,-2.651,-2.6517,-2.6522,-2.6541,-2.6552,-2.6444,-2.6444,-2.6444,0,0,-2.6493,-2.6482,-2.6491,-2.6493,-2.6487,-2.65,-2.6457,-2.6472,-2.6482,-2.6439,-2.6462,-2.6454,-2.6448,-2.648,-2.6493,-2.6475,-2.6551,-2.6522,-2.6528,-2.6529,-2.6547,-2.6557,-2.6566,-2.6447,-2.6447,-2.6446,0,0,-2.6561,-2.6554,-2.6578,-2.6574,-2.6567,-2.6551,-2.6557,-2.6543,-2.6536,-2.6558,-2.6526,-2.6538,-2.6553,-2.655,-2.655,-2.6617,-2.6593,-2.662,-2.6664,-2.6684,-2.6692,-2.6699,-2.6723,-2.6732,-2.6625,-2.6625,-2.6625,0,-2.6603,-2.6621,-2.6594,-2.6612,-2.6613,-2.6575,-2.66,-2.6597,-2.6593,-2.6595,-2.6575,-2.6593,-2.6586,-2.6617,-2.6633,-2.6635,-2.6641,-2.6621,-2.6693,-2.67,-2.6706,-2.6729,-2.6738,-2.6629,-2.6628,-2.6628,-2.6628,0,-2.6675,-2.6688,-2.6709,-2.6704,-2.6708,-2.673,-2.6706,-2.6713,-2.6695,-2.6682,-2.6705,-2.6695,-2.6699,-2.6705,-2.6687,-2.6733,-2.6722,-2.6698,-2.6662,-2.672,-2.6741,-2.6749,-2.6633,-2.6632,-2.6631,-2.663,0,0,-2.6778,-2.6758,-2.6766,-2.6764,-2.6753,-2.6763,-2.6782,-2.6786,-2.6793,-2.6791,-2.6807,-2.682,-2.6798,-2.6798,-2.678,-2.6797,-2.6851,-2.677,-2.677,-2.6786,-2.6901,-2.6919,-2.693,-2.6834,-2.6836,-2.6837,-2.6901,0,-2.6843,-2.6875,-2.6851,-2.6887,-2.6899,-2.6862,-2.688,-2.6875,-2.6863,-2.6872,-2.6859,-2.6869,-2.6838,-2.6838,-2.6854,-2.6841,-2.6873,-2.6836,-2.6849,-2.685,-2.6852,-2.694,-2.696,-2.7021,-2.6909,-2.6911,-2.6912,0,-2.6922,-2.6923,-2.6961,-2.6947,-2.6951,-2.6967,-2.6968,-2.6977,-2.6971,-2.6961,-2.6962,-2.6938,-2.6957,-2.6922,-2.6947,-2.6923,-2.6927,-2.6921,-2.6923,-2.6923,-2.6884,-2.6943,-2.704,-2.7049,-2.6924,-2.6923,-2.6922,0,-2.6994,-2.7005,-2.7029,-2.7028,-2.7012,-2.7024,-2.7018,-2.701,-2.7014,-2.7015,-2.7017,-2.7021,-2.7023,-2.7027,-2.7005,-2.6982,-2.7034,-2.6997,-2.7027,-2.7027,-2.7039,-2.7039,-2.7138,-2.7042,-2.7042,-2.7042,-2.7042,0,-2.7069,-2.7093,-2.706,-2.7075,-2.7101,-2.7074,-2.7101,-2.7091,-2.7084,-2.7097,-2.7066,-2.7078,-2.7049,-2.7059,-2.7042,-2.7066,-2.7067,-2.706,-2.7056,-2.7063,-2.7064,-2.7065,-2.7061,-2.7044,-2.7044,-2.7043,-2.7043,0,-2.7153,-2.7132,-2.7156,-2.7139,-2.7135,-2.7156,-2.7141,-2.7154,-2.714,-2.7157,-2.7159,-2.7137,-2.7147,-2.7126,-2.7133,-2.7121,-2.7155,-2.7144,-2.7157,-2.7154,-2.7185,-2.7182,-2.7288,-2.7301,-2.7197,-2.7198,-2.7199,0,-2.7203,-2.722,-2.7205,-2.7211,-2.7207,-2.7217,-2.722,-2.7193,-2.7198,-2.7193,-2.7207,-2.7213,-2.7218,-2.7235,-2.722,-2.7225,-2.7214,-2.725,-2.7214,-2.7221,-2.7214,-2.7213,-2.7215,-2.7258,-2.7259,-2.726,-2.7261,0,-2.7292,-2.7281,-2.7286,-2.7288,-2.7293,-2.7294,-2.7292,-2.7299,-2.727,-2.7278,-2.7287,-2.729,-2.7297,-2.7304,-2.7306,-2.73,-2.7276,-2.7273,-2.728,-2.7288,-2.7295,-2.7291,-2.7178,-2.727,-2.7269,-2.7269,-2.7268,-2.7268,-2.736,-2.7374,-2.7366,-2.7373,-2.7369,-2.7368,-2.7379,-2.7367,-2.7374,-2.7376,-2.7361,-2.7373,-2.7367,-2.7367,-2.7364,-2.7373,-2.7357,-2.7367,-2.737,-2.7373,-2.7378,-2.7293,-2.7374,-2.7373,-2.7373,-2.7373,-2.7373,0,-2.7448,-2.7441,-2.7448,-2.7446,-2.7452,-2.7428,-2.7425,-2.7432,-2.7443,-2.7439,-2.7443,-2.7454,-2.7461,-2.7447,-2.7452,-2.7462,-2.7451,-2.7464,-2.7463,-2.7463,-2.7392,-2.7386,-2.7473,-2.7473,-2.7473,-2.7473,-2.7473,-2.7473,-2.7494,-2.7517,-2.7504,-2.7525,-2.7517,-2.7529,-2.7529,-2.7528,-2.7525,-2.7538,-2.7543,-2.7533,-2.7525,-2.7529,-2.7535,-2.753,-2.7534,-2.7551,-2.7543,-2.7477,-2.7467,-2.7458,-2.7452,-2.7551,-2.7552,-2.7612,-2.7612,-2.7613]},{"header":{"parameterUnit":"m.s-1","parameterCategory":1,"la1":30.2991,"la2":30.254,"lo1":-89.0895,"lo2":-89.0444,"dy":0.0017,"dx":0.0017,"nx":28,"ny":28,"refTime":"2025-11-29T03:00:00:Z","depth":0,"parameterNumber":3,"parameterNumberName":"V-component_of_WINDS"},"data":[0,0,0,0,0,0,0,0,0,0,0,0,0,0,0,0,0,0,0,0,0,0,0,0,0,0,0,0,0,0,0,0,0,0,0,0,0,0,0,0,0,0,0,0,0,0,0,0,0,0,0,0,0,0,0,0,0,0,-4.926,-4.926,0,-4.9338,-4.9339,-4.934,-4.9321,-4.9319,-4.9318,-4.9317,-4.9393,-4.9396,-4.94,0,0,0,0,0,0,0,0,0,0,0,0,0,-4.9088,-4.9091,-4.9259,-4.926,-4.9261,-4.9338,-4.9339,-4.934,-4.9321,-4.9319,-4.9318,-4.9316,-4.9392,-4.9396,-4.94,0,0,0,0,0,0,0,0,0,0,0,0,0,-4.9164,-4.9093,-4.9259,-4.9261,-4.9262,-4.9338,-4.9339,-4.9341,-4.9322,-4.9319,-4.9317,-4.9315,-4.9391,-4.9396,-4.9401,-4.9478,0,0,-4.9416,-4.9419,0,0,0,0,0,0,0,0,-4.916,-4.9171,-4.926,-4.9261,-4.9263,-4.9318,-4.9307,-4.9387,-4.9322,-4.9299,-4.9317,-4.9314,-4.937,-4.9376,-4.9396,-4.9482,-4.9485,-4.9417,-4.942,-4.9422,-4.9424,0,0,0,0,0,0,0,-4.9155,-4.9167,-4.9291,-4.9261,-4.9263,-4.9257,-4.9265,-4.9322,-4.9346,-4.9301,-4.93,-4.9309,-4.937,-4.9391,-4.9398,-4.9486,-4.9417,-4.9421,-4.9425,-4.9427,-4.9639,-4.9642,0,0,0,0,0,0,-4.9149,-4.9163,-4.9288,-4.9293,-4.9205,-4.9262,-4.9271,-4.9302,-4.9345,-4.935,-4.9311,-4.9308,-4.9383,-4.9392,-4.94,-4.9494,-4.9422,-4.9427,-4.943,-4.9637,-4.964,-4.9643,0,0,0,0,0,0,-4.9145,-4.916,-4.9285,-4.9228,-4.9243,-4.9267,-4.9302,-4.9305,-4.9326,-4.9353,-4.9357,-4.9329,-4.9382,-4.9393,-4.9459,-4.9496,-4.9429,-4.9434,-4.9634,-4.9638,-4.9641,-4.9682,0,0,0,0,0,0,-4.9141,-4.9159,-4.919,-4.9229,-4.9246,-4.9344,-4.9305,-4.9308,-4.9336,-4.9332,-4.9371,-4.9375,-4.9381,-4.9452,-4.9464,-4.9502,-4.9438,-4.9631,-4.9636,-4.964,-4.9677,-4.9687,-4.9695,0,0,0,0,0,-4.9135,-4.9197,-4.9191,-4.9207,-4.9285,-4.9346,-4.9356,-4.9363,-4.9339,-4.9369,-4.9387,-4.9374,-4.949,-4.9459,-4.9473,-4.9513,-4.9628,-4.9634,-4.964,-4.9673,-4.9685,-4.9694,0,0,0,0,0,0,-4.916,-4.9202,-4.9196,-4.9274,-4.9307,-4.9343,-4.9381,-4.9375,-4.9414,-4.9409,-4.9415,-4.9423,-4.9491,-4.9508,-4.9472,-4.959,-4.9556,-4.9564,-4.9576,-4.9587,-4.9596,-4.959,-4.9442,0,0,0,0,0,-4.9175,-4.9223,-4.9256,-4.9321,-4.9338,-4.9357,-4.9384,-4.9386,-4.942,-4.9433,-4.9456,-4.9488,-4.9532,-4.956,-4.9602,-4.968,-4.9688,-4.9714,-4.9723,-4.973,-4.9737,-4.978,-4.9792,-4.9661,-4.9661,-4.9661,0,0,-4.9206,-4.9235,-4.9264,-4.9327,-4.9353,-4.9401,-4.9369,-4.942,-4.9456,-4.9441,-4.9505,-4.9523,-4.9559,-4.9631,-4.9664,-4.9648,-4.9775,-4.9737,-4.9742,-4.9746,-4.9787,-4.9799,-4.981,-4.9665,-4.9665,-4.9664,0,0,-4.9287,-4.9313,-4.9371,-4.9398,-4.9438,-4.945,-4.9464,-4.9502,-4.9513,-4.9578,-4.9568,-4.961,-4.9685,-4.9712,-4.9735,-4.9826,-4.9816,-4.9839,-4.9884,-4.9926,-4.9936,-4.9945,-4.9978,-4.9989,-4.9847,-4.9847,-4.9847,0,-4.9319,-4.9393,-4.94,-4.9454,-4.9482,-4.9472,-4.9529,-4.9555,-4.9606,-4.9625,-4.9606,-4.9701,-4.9724,-4.9803,-4.9826,-4.9845,-4.986,-4.9835,-4.9934,-4.9943,-4.9952,-4.9983,-4.9995,-4.985,-4.9849,-4.9849,-4.9849,0,-4.9431,-4.9482,-4.9523,-4.9575,-4.9607,-4.9662,-4.9677,-4.9708,-4.9708,-4.9722,-4.9788,-4.9817,-4.9864,-4.9883,-4.9883,-4.9962,-4.995,-4.9933,-4.9898,-4.9967,-4.9996,-5.0008,-4.9853,-4.9852,-4.9852,-4.9851,0,0,-4.953,-4.9586,-4.9601,-4.9625,-4.9669,-4.9707,-4.9762,-4.981,-4.9837,-4.9872,-4.9917,-4.9982,-4.9966,-4.9993,-4.9995,-5.0031,-5.0102,-5.0009,-5.001,-5.0026,-5.0191,-5.0204,-5.0218,-5.0096,-5.0098,-5.01,-5.0188,0,-4.9615,-4.9712,-4.9721,-4.9808,-4.9855,-4.9847,-4.9894,-4.9925,-4.994,-4.998,-4.9996,-5.0042,-5.0017,-5.0033,-5.0069,-5.0086,-5.0135,-5.008,-5.0137,-5.0139,-5.0128,-5.0233,-5.0247,-5.0329,-5.02,-5.0202,-5.0203,0,-4.9727,-4.9768,-4.986,-4.9898,-4.9918,-4.9961,-5.0006,-5.0045,-5.008,-5.0088,-5.0118,-5.0116,-5.0171,-5.0134,-5.0209,-5.0171,-5.0195,-5.0207,-5.021,-5.0216,-5.0175,-5.0242,-5.0355,-5.0368,-5.0221,-5.022,-5.0218,0,-4.979,-4.9868,-4.9933,-4.9954,-5.0,-5.003,-5.005,-5.0083,-5.0112,-5.015,-5.0169,-5.0213,-5.0237,-5.0271,-5.028,-5.0253,-5.0355,-5.0319,-5.0362,-5.0362,-5.0384,-5.0383,-5.0503,-5.0399,-5.0399,-5.0399,-5.0398,0,-4.9884,-4.994,-4.9963,-5.0003,-5.0066,-5.0075,-5.0137,-5.0155,-5.0185,-5.0227,-5.0222,-5.0262,-5.0272,-5.0313,-5.0321,-5.0382,-5.0392,-5.04,-5.0401,-5.0401,-5.04,-5.0416,-5.0411,-5.0402,-5.0401,-5.0401,-5.04,0,-4.9965,-4.9982,-5.0053,-5.0091,-5.0102,-5.0147,-5.0179,-5.0217,-5.0231,-5.0285,-5.0299,-5.032,-5.0369,-5.0382,-5.0439,-5.0444,-5.0516,-5.0512,-5.0505,-5.0505,-5.0547,-5.0543,-5.0683,-5.0702,-5.0585,-5.0586,-5.0587,0,-5.0024,-5.0068,-5.0111,-5.0141,-5.0163,-5.0209,-5.0239,-5.0249,-5.028,-5.0324,-5.0357,-5.0405,-5.0444,-5.0522,-5.0542,-5.0586,-5.0583,-5.0629,-5.0589,-5.0587,-5.0584,-5.0581,-5.0585,-5.0636,-5.0637,-5.0638,-5.0639,0,-5.0127,-5.0133,-5.0177,-5.0224,-5.026,-5.0297,-5.0333,-5.0356,-5.0371,-5.0406,-5.0457,-5.0487,-5.0547,-5.0595,-5.064,-5.0659,-5.0652,-5.0652,-5.0664,-5.0664,-5.0658,-5.0662,-5.0526,-5.0648,-5.0647,-5.0647,-5.0646,-5.0646,-5.0199,-5.0238,-5.0275,-5.0324,-5.0352,-5.0385,-5.0423,-5.0443,-5.0486,-5.0536,-5.0539,-5.0594,-5.0628,-5.0688,-5.0709,-5.0752,-5.0738,-5.0755,-5.076,-5.0764,-5.0768,-5.0652,-5.076,-5.0759,-5.0759,-5.0759,-5.0759,0,-5.0302,-5.0325,-5.0371,-5.0421,-5.046,-5.0451,-5.049,-5.0522,-5.0571,-5.0604,-5.0643,-5.0701,-5.0748,-5.0772,-5.0818,-5.0847,-5.0845,-5.0859,-5.0857,-5.0861,-5.0778,-5.0763,-5.086,-5.086,-5.086,-5.086,-5.086,-5.086,-5.036,-5.0425,-5.0436,-5.0515,-5.0538,-5.0593,-5.0616,-5.0647,-5.0673,-5.0739,-5.0778,-5.0794,-5.0823,-5.0871,-5.0913,-5.0919,-5.0936,-5.0952,-5.0956,-5.0877,-5.0867,-5.0857,-5.0843,-5.0956,-5.0956,-5.1036,-5.1037,-5.1037]}]]